THOR ABLESTAR DEB, 1425

Orbit data source: Space-Track

THOR ABLESTAR DEB, 1425 is space debris in LEO originally from a launch on Thu, 24 Jun 1965 UTC launched from the Air Force Western Test Range (AFWTR). Debris objects in space refer to the collection of defunct objects orbiting the Earth. Examples of debris include non-operational satellites, rocket bodies, and fragments generated from explosions, collisions, or faulty payload assembly.

Loading next visibility...
Identifier
1425, 1965-048C
Orbit
LEO
Country
Flag of USUS
Related business
Manufacturer
APL
Mission
Spacecraft
Bus & Motor
Unknown
Mass
Unknown
Launch date (UTC)
1965-06-24 (60 years ago)
Launch vehicle
Unknown
Launch site
Air Force Western Test Range (AFWTR)
Object type
Payload
Rocket body
Debris
Shape & HBR
Unknown
Radar Cross Section
0.610 m², Medium (>0.1 m² and < 1m²)

Expand to show TLE details & history
Last TLE update: 15 hours ago

TLE from 15 hours ago
0 THOR ABLESTAR DEB
1 01425U 65048C   25259.07402626  .00000031  00000-0  35173-4 0  9992
2 01425  89.8777 288.3037 0071965 296.7386 116.2084 13.48924408963474
Epoch: 2025-09-16T01:46Z
TLE epoch observation values (Epoch: 2025-09-16T01:46:35.868Z)
Latitude
53.77744°
Longitude
-93.44919°
Altitude
1,109.123 km
Speed
7.291 km/s
True Right ascension
19h 13m 52s
True Declination
53° 37' 16"
Sunlit
Object was in daylight at epoch
Visualization orbit readout
Latitude
Unknown
Longitude
Unknown
Altitude
Unknown
Speed
Unknown
Apparent Right ascension
Unknown
Apparent Declination
Unknown
Sunlit
N/A
Visualization observer readout
Local Sidereal Time
09:28:18
Azimuth
Unknown
Elevation
Unknown
Doppler factor
Unknown
Orbital elements
Apogee altitude
1,126.894 km
Perigee altitude
1,019.646 km
Semi-major axis
7,451.407 km
Eccentricity
0.0072
Inclination
89.8777°
RAAN
288.3037°
Arg. of periapsis
296.7386°
True anomaly
116.94533°
Mean anomaly
116.2084°
Eccentric anomaly
116.57716°
Mean motion
3.37432 °/min
Orbital period
106.69 mins
BSTAR
0.000035173
Loading maneuver chart data...
Computing Atmospheric mass density...

Documentation

Showing up to 5 results
|